Flag for Hungary Weather past 2 weeks in Budapest, Hungary

Now
52 °F

Passing clouds.


Feels Like: 48 °F
Forecast: 33 / 45 °F
Wind: 12 mph from Northwest

Location: Ferenc Liszt International Airport

Current Time: Mar 4, 2015 at 12:55:32 PM

Latest Report: Mar 4, 2015 at 12:30 PM


Visibility: N/A

Pressure: 30.21 "Hg

Humidity: 35%

Dew point: 25 °F

Location of BudapestLocation

Historic Weather in Budapest — Graph

°F

Budapest temperature yesterday

Maximum temperature yesterday: 48 °F (at 3:00 PM)
Minimum temperature yesterday: 27 °F (at 11:00 PM)
Average temperature yesterday: 41 °F

Past Weeks' High & Low Weather Summary

 TemperatureHumidityPressure
High54 °F (Feb 25, 1:00 PM)100% (Feb 19, 7:00 AM)30.74 "Hg (Feb 19, 7:00 AM)
Low16 °F (Feb 18, 6:00 AM)20% (Feb 18, 12:30 PM)29.68 "Hg (Feb 22, 3:30 PM)
Average40 °F82%30.03 "Hg
* Reported Feb 17 11:00 AM — Mar 4 11:30 AM, Budapest, Weather by CustomWeather, © 2015

Note: Actual official high and low records may vary slightly from our data, if they occured in-between our weather recording intervals... More about our weather records

Advertising

Budapest weather history for previous 24 hours

 ConditionsComfort  
Time TempWeatherWind HumidityBarometerVisibility
11:30 AM
Wed, Mar 4
48 °FSunny.9 mph40%30.21 "Hg10 mi
11:00 AM46 °FPassing clouds.9 mph46%30.21 "HgN/A
10:30 AM46 °FSunny.12 mph43%30.21 "Hg10 mi
10:00 AM45 °FPassing clouds.7 mph46%30.21 "HgN/A
9:30 AM41 °FSunny.6 mph57%30.21 "Hg10 mi
9:00 AM39 °FPassing clouds.6 mph65%30.21 "HgN/A
8:30 AM37 °FPassing clouds.6 mph70%30.21 "HgN/A
8:00 AM34 °FSunny.7 mph87%30.18 "Hg10 mi
7:30 AM32 °FSunny.6 mph75%30.18 "Hg10 mi
7:00 AM30 °FSunny.5 mph75%30.18 "Hg10 mi
6:30 AM30 °FSunny.2 mph69%30.18 "Hg10 mi
6:00 AM27 °FClear.2 mph80%30.18 "Hg10 mi
5:30 AM28 °FClear.5 mph80%30.18 "Hg10 mi
5:00 AM27 °FClear.3 mph86%30.21 "Hg10 mi
4:30 AM27 °FClear.3 mph86%30.21 "Hg10 mi
4:00 AM30 °FClear.3 mph80%30.21 "Hg10 mi
3:30 AM30 °FClear.5 mph80%30.21 "Hg10 mi
3:00 AM32 °FPassing clouds.7 mph75%30.21 "HgN/A
2:30 AM28 °FClear.6 mph93%30.21 "Hg10 mi
2:00 AM27 °FClear.5 mph93%30.24 "Hg10 mi
1:30 AM28 °FClear.6 mph86%30.24 "Hg10 mi
1:00 AM28 °FClear.5 mph93%30.24 "Hg10 mi
12:30 AM30 °FClear.3 mph80%30.24 "Hg10 mi
12:00 AM27 °FClear.2 mph86%30.24 "Hg10 mi
11:30 PM
Tue, Mar 3
32 °FPassing clouds.7 mph75%30.24 "HgN/A
11:00 PM27 °FPassing clouds.6 mph80%30.24 "HgN/A
10:30 PM28 °FClear.3 mph80%30.24 "Hg10 mi
10:00 PM30 °FClear.2 mph75%30.24 "Hg10 mi
9:30 PM34 °FClear.2 mph70%30.24 "Hg10 mi
9:00 PM36 °FClear.8 mph65%30.24 "Hg10 mi
8:30 PM36 °FClear.9 mph65%30.24 "Hg10 mi
8:00 PM32 °FClear.5 mph64%30.24 "Hg10 mi
7:30 PM37 °FClear.5 mph52%30.24 "Hg10 mi
7:00 PM41 °FClear.7 mph45%30.24 "Hg10 mi
6:30 PM41 °FClear.5 mph49%30.24 "Hg10 mi
6:00 PM43 °FClear.8 mph42%30.21 "Hg10 mi
5:30 PM43 °FClear.8 mph42%30.21 "Hg10 mi
5:00 PM46 °FSunny.15 mph34%30.21 "Hg10 mi
4:30 PM46 °FSunny.14 mph34%30.21 "Hg10 mi
4:00 PM48 °FSunny.15 mph34%30.21 "Hg10 mi
3:30 PM48 °FSunny.24 mph29%30.18 "Hg10 mi
3:00 PM48 °FSunny.21 mph32%30.18 "Hg10 mi
2:30 PM46 °FSunny.24 mph34%30.18 "Hg10 mi
2:00 PM46 °FSunny.18 mph40%30.18 "Hg10 mi
1:30 PM46 °FSunny.22 mph40%30.18 "Hg10 mi
1:00 PM46 °FPassing clouds.22 mph37%30.18 "HgN/A
12:30 PM45 °FSunny.22 mph42%30.18 "Hg10 mi
12:00 PM46 °FSunny.26 mph37%30.18 "Hg10 mi
Weather by CustomWeather, © 2015

See weather overviewHow to use our weather pages